Location: Ceske Budejovice
(48.9830°N, 14.4670°E)
Time: 02:28:11
(UTC+01:00)

ISS - Pass Details

Date: 24 November 2019
Orbit: 411 x 421 km, 51.6° (Epoch: 12 December)

Event Time Altitude Azimuth Distance (km) Brightness Sun altitude
Rises 18:25:13 0° 234° (SW) 2,348 1.1 -21.3°
Reaches altitude 10° 18:27:19 10° 230° (SW) 1,490 -0.2 -21.6°
Enters shadow 18:29:47 41° 202° (SSW) 616 -2.8 -22.0°
